Home > Time Zones > World Clock > Weather > U.S.A. > Napa > Past weeks

Flag for U.S.A. Weather past 2 weeks in Napa, California, U.S.A.

Now
51 °F

Clear.


Feels Like: 47 °F
Forecast: 49 / 72 °F
Wind: 10 mph from Southwest

Location: Napa County Airport

Current Time: May 7, 2015 at 12:49:26 AM

Latest Report: May 6, 2015 at 11:54 PM


Visibility: 10 mi

Pressure: 29.75 "Hg

Humidity: 74%

Dew point: 43 °F

Location of NapaLocation

Historic Weather in Napa — Graph

°F

Napa temperature yesterday

Maximum temperature yesterday: 70 °F (at 3:54 PM)
Minimum temperature yesterday: 42 °F (at 6:54 AM)
Average temperature yesterday: 57 °F

Past Weeks' High & Low Weather Summary

 TemperatureHumidityPressure
High87 °F (Apr 30, 2:54 PM)100% (Apr 27, 3:00 AM)30.12 "Hg (Apr 27, 3:00 AM)
Low41 °F (Apr 26, 5:54 AM)23% (Apr 30, 2:54 PM)29.73 "Hg (May 6, 6:54 PM)
Average58 °F75%29.89 "Hg
* Reported Apr 21 10:54 PM — May 6 10:54 PM, Napa, Weather by CustomWeather, © 2015

Note: Actual official high and low records may vary slightly from our data, if they occured in-between our weather recording intervals... More about our weather records

Advertising

Napa weather history for previous 24 hours

 ConditionsComfort  
Time TempWeatherWind HumidityBarometerVisibility
10:54 PM
Wed, May 6
53 °FClear.12 mph77%29.76 "Hg10 mi
9:54 PM54 °FClear.12 mph72%29.76 "Hg10 mi
8:54 PM56 °FSunny.9 mph70%29.75 "Hg10 mi
7:54 PM60 °FSunny.13 mph67%29.74 "Hg10 mi
6:54 PM65 °FSunny.14 mph54%29.73 "Hg10 mi
5:54 PM69 °FSunny.13 mph45%29.74 "Hg10 mi
4:54 PM70 °FSunny.14 mph46%29.75 "Hg10 mi
3:54 PM70 °FSunny.16 mph46%29.75 "Hg10 mi
2:54 PM69 °FSunny.16 mph49%29.78 "Hg10 mi
1:54 PM68 °FSunny.10 mph53%29.80 "Hg10 mi
12:54 PM65 °FPassing clouds.10 mph54%29.82 "Hg10 mi
11:54 AM62 °FPassing clouds.9 mph58%29.84 "Hg10 mi
10:54 AM60 °FPassing clouds.7 mph58%29.85 "Hg10 mi
9:54 AM56 °FSunny.7 mph60%29.85 "Hg10 mi
8:54 AM54 °FSunny.6 mph67%29.85 "Hg10 mi
7:54 AM50 °FSunny.5 mph83%29.85 "Hg10 mi
6:54 AM42 °FClear.No wind96%29.84 "Hg10 mi
5:54 AM44 °FClear.No wind93%29.84 "Hg10 mi
4:54 AM43 °FClear.No wind93%29.83 "Hg10 mi
3:54 AM48 °FClear.9 mph86%29.83 "Hg10 mi
2:54 AM49 °FClear.10 mph86%29.84 "Hg10 mi
1:54 AM50 °FClear.9 mph83%29.84 "Hg10 mi
12:54 AM51 °FClear.12 mph83%29.85 "Hg10 mi
Weather by CustomWeather, © 2015

See weather overviewHow to use our weather pages